Time,TemperatureF,DewpointF,PressureIn,WindDirection,WindDirectionDegrees,WindSpeedMPH,WindSpeedGustMPH,Humidity,HourlyPrecipIn,Conditions,Clouds,dailyrainin,SoftwareType,DateUTC
2013-09-23 00:01:00,58.6,56.6,29.91,NNW,333,0.0,0.0,93,0.00,,---,0.00,VWS V14.00,2013-09-23 04:01:00,
2013-09-23 00:02:00,58.6,56.6,29.91,NNW,333,0.0,0.0,93,0.00,,---,0.00,VWS V14.00,2013-09-23 04:02:00,
2013-09-23 00:07:00,58.6,56.6,29.91,NNW,333,0.0,0.0,93,0.00,,---,0.00,VWS V14.00,2013-09-23 04:07:00,
2013-09-23 00:10:00,58.2,56.2,29.91,NNW,333,0.0,0.0,93,0.00,,---,0.00,VWS V14.00,2013-09-23 04:10:00,
2013-09-23 00:12:00,58.2,56.2,29.91,NNW,333,0.0,0.0,93,0.00,,---,0.00,VWS V14.00,2013-09-23 04:12:00,
2013-09-23 00:17:00,58.1,56.1,29.91,NNW,333,0.0,0.0,93,0.00,,---,0.00,VWS V14.00,2013-09-23 04:17:00,
2013-09-23 00:20:00,58.0,56.0,29.91,NNW,333,0.0,0.0,93,0.00,,---,0.00,VWS V14.00,2013-09-23 04:20:00,
2013-09-23 00:22:00,58.0,56.0,29.92,NNW,333,0.0,0.0,93,0.00,,---,0.00,VWS V14.00,2013-09-23 04:22:00,
2013-09-23 00:27:00,57.8,55.8,29.91,NNW,333,0.0,0.0,93,0.00,,---,0.00,VWS V14.00,2013-09-23 04:27:00,
2013-09-23 00:30:00,57.8,55.8,29.91,NNW,333,0.0,0.0,93,0.00,,---,0.00,VWS V14.00,2013-09-23 04:30:00,
2013-09-23 00:32:00,57.8,55.8,29.91,NNW,333,0.0,0.0,93,0.00,,---,0.00,VWS V14.00,2013-09-23 04:32:00,
2013-09-23 00:37:00,57.6,55.6,29.91,NNW,333,0.0,0.0,93,0.00,,---,0.00,VWS V14.00,2013-09-23 04:37:00,
2013-09-23 00:40:00,57.5,55.5,29.91,NNW,333,0.0,0.0,93,0.00,,---,0.00,VWS V14.00,2013-09-23 04:40:00,
2013-09-23 00:42:00,57.5,55.8,29.91,NNW,333,0.0,0.0,94,0.00,,---,0.00,VWS V14.00,2013-09-23 04:42:00,
2013-09-23 00:47:00,57.4,55.7,29.91,NNW,333,0.0,0.0,94,0.00,,---,0.00,VWS V14.00,2013-09-23 04:47:00,
2013-09-23 00:50:00,57.4,55.7,29.91,NNW,333,0.0,0.0,94,0.00,,---,0.00,VWS V14.00,2013-09-23 04:50:00,
2013-09-23 00:52:00,57.4,55.7,29.91,NNW,333,0.0,0.0,94,0.00,,---,0.00,VWS V14.00,2013-09-23 04:52:00,
2013-09-23 00:57:00,57.3,55.6,29.91,NNW,333,0.0,0.0,94,0.00,,---,0.00,VWS V14.00,2013-09-23 04:57:00,
2013-09-23 01:00:00,57.3,55.6,29.91,NNW,333,0.0,0.0,94,0.00,,---,0.00,VWS V14.00,2013-09-23 05:00:00,
2013-09-23 01:02:00,57.3,55.6,29.91,NNW,333,0.0,0.0,94,0.00,,---,0.00,VWS V14.00,2013-09-23 05:02:00,
2013-09-23 01:07:00,57.1,55.4,29.91,NNW,333,0.0,0.0,94,0.00,,---,0.00,VWS V14.00,2013-09-23 05:07:00,
2013-09-23 01:10:00,57.1,55.4,29.91,NNW,333,0.0,0.0,94,0.00,,---,0.00,VWS V14.00,2013-09-23 05:10:00,
2013-09-23 01:12:00,57.0,55.3,29.91,NNW,333,0.0,0.0,94,0.00,,---,0.00,VWS V14.00,2013-09-23 05:12:00,
2013-09-23 01:20:00,56.8,55.1,29.91,North,0,0.0,0.0,94,0.00,,---,0.00,VWS V14.00,2013-09-23 05:20:00,
2013-09-23 01:30:00,56.7,55.0,29.91,North,0,0.0,0.0,94,0.00,,---,0.00,VWS V14.00,2013-09-23 05:30:00,
2013-09-23 01:40:00,56.6,54.9,29.91,North,0,0.0,0.0,94,0.00,,---,0.00,VWS V14.00,2013-09-23 05:40:00,
2013-09-23 01:50:00,56.5,54.8,29.91,North,0,0.0,0.0,94,0.00,,---,0.00,VWS V14.00,2013-09-23 05:50:00,
2013-09-23 02:00:00,56.3,54.6,29.91,North,0,0.0,0.0,94,0.00,,---,0.00,VWS V14.00,2013-09-23 06:00:00,
2013-09-23 02:10:00,56.4,55.0,29.91,North,0,0.0,0.0,95,0.00,,---,0.00,VWS V14.00,2013-09-23 06:10:00,
2013-09-23 02:20:00,56.3,54.9,29.91,North,0,0.0,0.0,95,0.00,,---,0.00,VWS V14.00,2013-09-23 06:20:00,
2013-09-23 02:30:00,56.3,54.9,29.91,North,0,0.0,0.0,95,0.00,,---,0.00,VWS V14.00,2013-09-23 06:30:00,
2013-09-23 02:40:00,56.2,54.8,29.91,North,0,0.0,0.0,95,0.00,,---,0.00,VWS V14.00,2013-09-23 06:40:00,
2013-09-23 02:50:00,56.1,54.7,29.92,North,0,0.0,0.0,95,0.00,,---,0.00,VWS V14.00,2013-09-23 06:50:00,
2013-09-23 03:00:00,56.0,54.6,29.92,North,0,0.0,0.0,95,0.00,,---,0.00,VWS V14.00,2013-09-23 07:00:00,
2013-09-23 03:10:00,55.8,54.4,29.92,North,0,0.0,0.0,95,0.00,,---,0.00,VWS V14.00,2013-09-23 07:10:00,
2013-09-23 03:20:00,55.6,54.2,29.92,North,0,0.0,0.0,95,0.00,,---,0.00,VWS V14.00,2013-09-23 07:20:00,
2013-09-23 03:30:00,55.5,54.1,29.92,North,0,0.0,0.0,95,0.00,,---,0.00,VWS V14.00,2013-09-23 07:30:00,
2013-09-23 03:40:00,55.4,54.0,29.92,North,0,0.0,0.0,95,0.00,,---,0.00,VWS V14.00,2013-09-23 07:40:00,
2013-09-23 03:50:00,55.3,53.9,29.92,North,0,0.0,0.0,95,0.00,,---,0.00,VWS V14.00,2013-09-23 07:50:00,
2013-09-23 04:00:00,55.3,53.9,29.92,North,0,0.0,0.0,95,0.00,,---,0.00,VWS V14.00,2013-09-23 08:00:00,
2013-09-23 04:10:00,55.2,53.8,29.92,North,0,0.0,0.0,95,0.00,,---,0.00,VWS V14.00,2013-09-23 08:10:00,
2013-09-23 04:20:00,55.0,53.6,29.92,North,0,0.0,0.0,95,0.00,,---,0.00,VWS V14.00,2013-09-23 08:20:00,
2013-09-23 04:30:00,54.9,53.5,29.92,North,0,0.0,0.0,95,0.00,,---,0.00,VWS V14.00,2013-09-23 08:30:00,
2013-09-23 04:40:00,54.8,53.4,29.93,North,0,0.0,0.0,95,0.00,,---,0.00,VWS V14.00,2013-09-23 08:40:00,
2013-09-23 04:50:00,54.6,53.2,29.93,North,0,0.0,0.0,95,0.00,,---,0.00,VWS V14.00,2013-09-23 08:50:00,
2013-09-23 05:00:00,54.5,53.1,29.93,North,0,0.0,0.0,95,0.00,,---,0.00,VWS V14.00,2013-09-23 09:00:00,
2013-09-23 05:10:00,54.6,53.2,29.93,North,0,0.0,0.0,95,0.00,,---,0.00,VWS V14.00,2013-09-23 09:10:00,
2013-09-23 05:20:00,54.7,53.6,29.93,North,0,0.0,0.0,96,0.00,,---,0.00,VWS V14.00,2013-09-23 09:20:00,
2013-09-23 05:30:00,54.7,53.6,29.94,North,0,0.0,0.0,96,0.00,,---,0.00,VWS V14.00,2013-09-23 09:30:00,
2013-09-23 05:40:00,54.6,53.5,29.94,North,0,0.0,0.0,96,0.00,,---,0.00,VWS V14.00,2013-09-23 09:40:00,
2013-09-23 05:50:00,54.6,53.5,29.94,North,0,0.0,0.0,96,0.00,,---,0.00,VWS V14.00,2013-09-23 09:50:00,
2013-09-23 06:00:00,54.6,53.5,29.95,North,0,0.0,0.0,96,0.00,,---,0.00,VWS V14.00,2013-09-23 10:00:00,
2013-09-23 06:10:00,54.9,53.8,29.95,North,0,0.0,0.0,96,0.00,,---,0.00,VWS V14.00,2013-09-23 10:10:00,
2013-09-23 06:20:00,55.0,53.9,29.95,North,0,0.0,0.0,96,0.00,,---,0.00,VWS V14.00,2013-09-23 10:20:00,
2013-09-23 06:30:00,55.1,54.0,29.96,North,0,0.0,0.0,96,0.00,,---,0.00,VWS V14.00,2013-09-23 10:30:00,
2013-09-23 06:40:00,55.3,54.2,29.97,North,0,0.0,0.0,96,0.00,,---,0.00,VWS V14.00,2013-09-23 10:40:00,
2013-09-23 06:50:00,55.7,54.6,29.97,North,0,0.0,0.0,96,0.00,,---,0.00,VWS V14.00,2013-09-23 10:50:00,
2013-09-23 07:00:00,56.1,55.0,29.97,North,0,0.0,0.0,96,0.00,,---,0.00,VWS V14.00,2013-09-23 11:00:00,
2013-09-23 07:10:00,56.6,55.5,29.98,North,0,0.0,0.0,96,0.00,,---,0.00,VWS V14.00,2013-09-23 11:10:00,
2013-09-23 07:20:00,57.1,56.0,29.98,NNW,338,0.0,1.0,96,0.00,,---,0.00,VWS V14.00,2013-09-23 11:20:00,
2013-09-23 07:30:00,57.4,56.0,29.99,NNW,338,0.0,3.0,95,0.00,,---,0.00,VWS V14.00,2013-09-23 11:30:00,
2013-09-23 07:40:00,57.5,55.8,29.99,North,0,0.0,4.0,94,0.00,,---,0.00,VWS V14.00,2013-09-23 11:40:00,
2013-09-23 07:50:00,57.7,55.7,30.00,NNE,22,1.0,4.0,93,0.00,,---,0.00,VWS V14.00,2013-09-23 11:50:00,
2013-09-23 08:00:00,57.8,55.5,30.00,NNE,22,0.0,4.0,92,0.00,,---,0.00,VWS V14.00,2013-09-23 12:00:00,
2013-09-23 08:10:00,58.0,55.7,30.00,NNE,22,0.0,3.0,92,0.00,,---,0.00,VWS V14.00,2013-09-23 12:10:00,
2013-09-23 08:20:00,58.3,56.0,30.01,North,0,0.0,4.0,92,0.00,,---,0.00,VWS V14.00,2013-09-23 12:20:00,
2013-09-23 08:30:00,58.7,56.1,30.01,North,0,0.0,3.0,91,0.00,,---,0.00,VWS V14.00,2013-09-23 12:30:00,
2013-09-23 08:40:00,59.0,56.4,30.01,North,0,0.0,3.0,91,0.00,,---,0.00,VWS V14.00,2013-09-23 12:40:00,
2013-09-23 08:50:00,59.2,56.6,30.01,North,0,1.0,5.0,91,0.00,,---,0.00,VWS V14.00,2013-09-23 12:50:00,
2013-09-23 09:00:00,59.7,56.8,30.01,NNE,22,1.0,5.0,90,0.00,,---,0.00,VWS V14.00,2013-09-23 13:00:00,
2013-09-23 09:10:00,60.5,57.2,30.01,NNE,22,0.0,3.0,89,0.00,,---,0.00,VWS V14.00,2013-09-23 13:10:00,
2013-09-23 09:20:00,61.1,57.8,30.01,NNE,22,0.0,3.0,89,0.00,,---,0.00,VWS V14.00,2013-09-23 13:20:00,
2013-09-23 09:30:00,61.5,57.9,30.01,NNE,22,1.0,4.0,88,0.00,,---,0.00,VWS V14.00,2013-09-23 13:30:00,
2013-09-23 09:40:00,62.3,58.1,30.01,NNE,22,0.0,3.0,86,0.00,,---,0.00,VWS V14.00,2013-09-23 13:40:00,
2013-09-23 09:50:00,63.2,59.0,30.01,West,270,0.0,1.0,86,0.00,,---,0.00,VWS V14.00,2013-09-23 13:50:00,
2013-09-23 10:00:00,64.2,59.6,30.02,West,270,0.0,3.0,85,0.00,,---,0.00,VWS V14.00,2013-09-23 14:00:00,
2013-09-23 10:10:00,65.8,60.5,30.01,ESE,112,0.0,4.0,83,0.00,,---,0.00,VWS V14.00,2013-09-23 14:10:00,
2013-09-23 10:20:00,67.9,61.5,30.01,ESE,112,0.0,2.0,80,0.00,,---,0.00,VWS V14.00,2013-09-23 14:20:00,
2013-09-23 10:30:00,69.6,61.7,30.01,ESE,112,0.0,1.0,76,0.00,,---,0.00,VWS V14.00,2013-09-23 14:30:00,
2013-09-23 10:47:00,71.2,62.1,30.01,ESE,105,1.0,1.0,73,0.00,,---,0.00,VWS V14.00,2013-09-23 14:47:00,
2013-09-23 10:52:00,71.5,62.4,30.01,ESE,107,0.0,0.0,73,0.00,,---,0.00,VWS V14.00,2013-09-23 14:52:00,
2013-09-23 10:57:00,72.0,62.5,30.01,East,100,1.0,5.0,72,0.00,,---,0.00,VWS V14.00,2013-09-23 14:57:00,
2013-09-23 11:02:00,72.5,62.6,30.01,SSW,209,3.0,5.0,71,0.00,,---,0.00,VWS V14.00,2013-09-23 15:02:00,
2013-09-23 11:07:00,72.6,62.7,30.01,East,89,3.0,9.0,71,0.00,,---,0.00,VWS V14.00,2013-09-23 15:07:00,
2013-09-23 11:12:00,73.1,62.7,30.01,SSE,164,2.0,5.0,70,0.00,,---,0.00,VWS V14.00,2013-09-23 15:12:00,
2013-09-23 11:17:00,73.5,62.7,30.01,SE,141,4.0,5.0,69,0.00,,---,0.00,VWS V14.00,2013-09-23 15:17:00,
2013-09-23 11:22:00,73.8,61.7,30.01,SSE,155,5.0,7.0,66,0.00,,---,0.00,VWS V14.00,2013-09-23 15:22:00,
2013-09-23 11:27:00,73.9,61.4,30.01,ESE,111,4.0,8.0,65,0.00,,---,0.00,VWS V14.00,2013-09-23 15:27:00,
2013-09-23 11:32:00,74.1,61.2,30.01,SE,127,2.0,8.0,64,0.00,,---,0.00,VWS V14.00,2013-09-23 15:32:00,
2013-09-23 11:37:00,74.4,61.0,30.01,East,88,0.0,8.0,63,0.00,,---,0.00,VWS V14.00,2013-09-23 15:37:00,
2013-09-23 11:42:00,74.8,62.3,30.01,ESE,122,1.0,6.0,65,0.00,,---,0.00,VWS V14.00,2013-09-23 15:42:00,
2013-09-23 11:47:00,75.1,62.1,30.01,SE,128,1.0,6.0,64,0.00,,---,0.00,VWS V14.00,2013-09-23 15:47:00,
2013-09-23 11:52:00,75.5,62.0,30.01,NE,36,3.0,3.0,63,0.00,,---,0.00,VWS V14.00,2013-09-23 15:52:00,
2013-09-23 11:57:00,75.9,61.5,30.01,ESE,108,2.0,5.0,61,0.00,,---,0.00,VWS V14.00,2013-09-23 15:57:00,
2013-09-23 12:02:00,76.0,61.6,30.01,East,99,0.0,5.0,61,0.00,,---,0.00,VWS V14.00,2013-09-23 16:02:00,
2013-09-23 12:07:00,76.0,61.6,30.01,East,99,0.0,5.0,61,0.00,,---,0.00,VWS V14.00,2013-09-23 16:07:00,
2013-09-23 12:12:00,76.0,61.6,30.01,East,99,0.0,5.0,61,0.00,,---,0.00,VWS V14.00,2013-09-23 16:12:00,
2013-09-23 12:17:00,76.0,61.6,30.01,East,99,0.0,5.0,61,0.00,,---,0.00,VWS V14.00,2013-09-23 16:17:00,
2013-09-23 12:22:00,76.0,61.6,30.01,East,99,0.0,5.0,61,0.00,,---,0.00,VWS V14.00,2013-09-23 16:22:00,
2013-09-23 12:27:00,76.0,61.6,30.01,East,99,0.0,5.0,61,0.00,,---,0.00,VWS V14.00,2013-09-23 16:27:00,
2013-09-23 12:32:00,76.0,61.6,30.01,East,99,0.0,5.0,61,0.00,,---,0.00,VWS V14.00,2013-09-23 16:32:00,
2013-09-23 12:37:00,76.7,61.8,30.01,ESE,113,0.0,7.0,60,0.00,,---,0.00,VWS V14.00,2013-09-23 16:37:00,
2013-09-23 12:42:00,77.2,62.2,30.01,East,95,6.0,9.0,60,0.00,,---,0.00,VWS V14.00,2013-09-23 16:42:00,
2013-09-23 12:47:00,77.2,61.3,30.01,SE,125,1.0,9.0,58,0.00,,---,0.00,VWS V14.00,2013-09-23 16:47:00,
2013-09-23 12:52:00,77.1,61.7,30.01,SE,138,6.0,7.0,59,0.00,,---,0.00,VWS V14.00,2013-09-23 16:52:00,
2013-09-23 12:57:00,77.0,62.1,30.01,SE,134,2.0,9.0,60,0.00,,---,0.00,VWS V14.00,2013-09-23 16:57:00,
2013-09-23 13:02:00,77.4,62.0,30.00,SE,128,4.0,5.0,59,0.00,,---,0.00,VWS V14.00,2013-09-23 17:02:00,
2013-09-23 13:07:00,77.8,62.8,30.00,South,184,5.0,10.0,60,0.00,,---,0.00,VWS V14.00,2013-09-23 17:07:00,
2013-09-23 13:12:00,78.0,61.5,30.00,SE,131,2.0,9.0,57,0.00,,---,0.00,VWS V14.00,2013-09-23 17:12:00,
2013-09-23 13:17:00,77.9,62.0,30.00,SE,138,4.0,9.0,58,0.00,,---,0.00,VWS V14.00,2013-09-23 17:17:00,
2013-09-23 13:22:00,78.0,62.5,30.00,South,174,2.0,6.0,59,0.00,,---,0.00,VWS V14.00,2013-09-23 17:22:00,
2013-09-23 13:27:00,77.9,62.0,30.00,SSE,153,4.0,7.0,58,0.00,,---,0.00,VWS V14.00,2013-09-23 17:27:00,
2013-09-23 13:32:00,77.5,61.1,30.00,ESE,105,2.0,6.0,57,0.00,,---,0.00,VWS V14.00,2013-09-23 17:32:00,
2013-09-23 13:37:00,76.9,61.0,30.01,East,92,2.0,7.0,58,0.00,,---,0.00,VWS V14.00,2013-09-23 17:37:00,
2013-09-23 13:42:00,76.7,61.3,30.00,SSE,155,4.0,10.0,59,0.00,,---,0.00,VWS V14.00,2013-09-23 17:42:00,
2013-09-23 13:47:00,77.3,60.9,30.00,South,184,5.0,11.0,57,0.00,,---,0.00,VWS V14.00,2013-09-23 17:47:00,
2013-09-23 14:00:00,77.6,61.2,30.00,SSE,148,1.0,9.0,57,0.00,,---,0.00,VWS V14.00,2013-09-23 18:00:00,
2013-09-23 14:05:00,77.9,61.5,30.00,SSE,167,1.0,13.0,57,0.00,,---,0.00,VWS V14.00,2013-09-23 18:05:00,
2013-09-23 14:10:00,78.4,60.9,30.00,SSE,149,9.0,13.0,55,0.00,,---,0.00,VWS V14.00,2013-09-23 18:10:00,
2013-09-23 14:15:00,78.6,61.1,29.99,SE,128,0.0,9.0,55,0.00,,---,0.00,VWS V14.00,2013-09-23 18:15:00,
2013-09-23 14:20:00,78.8,61.8,29.99,SSE,158,7.0,9.0,56,0.00,,---,0.00,VWS V14.00,2013-09-23 18:20:00,
2013-09-23 14:25:00,78.8,62.3,29.99,SE,129,0.0,11.0,57,0.00,,---,0.00,VWS V14.00,2013-09-23 18:25:00,
2013-09-23 14:30:00,79.4,61.3,29.99,ESE,109,5.0,11.0,54,0.00,,---,0.00,VWS V14.00,2013-09-23 18:30:00,
2013-09-23 14:35:00,79.6,62.0,29.99,SE,135,0.0,5.0,55,0.00,,---,0.00,VWS V14.00,2013-09-23 18:35:00,
2013-09-23 14:40:00,79.8,61.7,29.99,ESE,104,2.0,7.0,54,0.00,,---,0.00,VWS V14.00,2013-09-23 18:40:00,
2013-09-23 14:45:00,79.8,61.2,29.99,East,92,4.0,8.0,53,0.00,,---,0.00,VWS V14.00,2013-09-23 18:45:00,
2013-09-23 14:50:00,80.1,62.5,29.99,ESE,117,2.0,8.0,55,0.00,,---,0.00,VWS V14.00,2013-09-23 18:50:00,
2013-09-23 14:55:00,80.0,61.9,29.98,ESE,110,0.0,7.0,54,0.00,,---,0.00,VWS V14.00,2013-09-23 18:55:00,
2013-09-23 15:00:00,80.2,61.0,29.98,NE,54,1.0,7.0,52,0.00,,---,0.00,VWS V14.00,2013-09-23 19:00:00,
2013-09-23 15:05:00,80.2,62.1,29.98,East,94,1.0,4.0,54,0.00,,---,0.00,VWS V14.00,2013-09-23 19:05:00,
2013-09-23 15:10:00,80.2,61.0,29.98,East,94,0.0,5.0,52,0.00,,---,0.00,VWS V14.00,2013-09-23 19:10:00,
2013-09-23 15:15:00,79.9,61.3,29.98,NE,46,5.0,5.0,53,0.00,,---,0.00,VWS V14.00,2013-09-23 19:15:00,
2013-09-23 15:20:00,79.3,61.2,29.98,East,80,4.0,6.0,54,0.00,,---,0.00,VWS V14.00,2013-09-23 19:20:00,
2013-09-23 15:25:00,79.1,61.6,29.98,SE,137,2.0,6.0,55,0.00,,---,0.00,VWS V14.00,2013-09-23 19:25:00,
2013-09-23 15:30:00,79.6,61.5,29.98,SSE,162,0.0,6.0,54,0.00,,---,0.00,VWS V14.00,2013-09-23 19:30:00,
2013-09-23 15:35:00,79.6,60.4,29.97,East,83,1.0,7.0,52,0.00,,---,0.00,VWS V14.00,2013-09-23 19:35:00,
2013-09-23 15:40:00,79.2,61.1,29.97,SSW,194,7.0,8.0,54,0.00,,---,0.00,VWS V14.00,2013-09-23 19:40:00,
2013-09-23 15:45:00,78.7,61.2,29.97,SE,132,8.0,8.0,55,0.00,,---,0.00,VWS V14.00,2013-09-23 19:45:00,
2013-09-23 15:50:00,78.5,61.5,29.97,ENE,74,4.0,8.0,56,0.00,,---,0.00,VWS V14.00,2013-09-23 19:50:00,
2013-09-23 15:55:00,78.9,61.4,29.97,East,96,2.0,6.0,55,0.00,,---,0.00,VWS V14.00,2013-09-23 19:55:00,
2013-09-23 16:00:00,79.3,61.2,29.97,ENE,57,0.0,6.0,54,0.00,,---,0.00,VWS V14.00,2013-09-23 20:00:00,
2013-09-23 16:04:00,79.3,61.2,29.97,East,96,1.0,6.0,54,0.00,,---,0.00,VWS V14.00,2013-09-23 20:04:00,
2013-09-23 16:09:00,78.8,61.3,29.97,East,100,1.0,6.0,55,0.00,,---,0.00,VWS V14.00,2013-09-23 20:09:00,
2013-09-23 16:14:00,78.6,61.1,29.97,ESE,107,0.0,8.0,55,0.00,,---,0.00,VWS V14.00,2013-09-23 20:14:00,
2013-09-23 16:19:00,79.0,62.0,29.97,ESE,106,2.0,8.0,56,0.00,,---,0.00,VWS V14.00,2013-09-23 20:19:00,
2013-09-23 16:24:00,79.1,61.6,29.96,ENE,78,4.0,7.0,55,0.00,,---,0.00,VWS V14.00,2013-09-23 20:24:00,
2013-09-23 16:29:00,79.1,61.0,29.97,SE,141,0.0,9.0,54,0.00,,---,0.00,VWS V14.00,2013-09-23 20:29:00,
2013-09-23 16:34:00,79.1,62.1,29.96,ESE,103,0.0,5.0,56,0.00,,---,0.00,VWS V14.00,2013-09-23 20:34:00,
2013-09-23 16:39:00,79.1,62.6,29.97,ESE,103,2.0,6.0,57,0.00,,---,0.00,VWS V14.00,2013-09-23 20:39:00,
2013-09-23 16:44:00,78.9,62.4,29.97,East,98,0.0,4.0,57,0.00,,---,0.00,VWS V14.00,2013-09-23 20:44:00,
2013-09-23 16:49:00,79.1,62.1,29.96,SSE,148,0.0,9.0,56,0.00,,---,0.00,VWS V14.00,2013-09-23 20:49:00,
2013-09-23 16:54:00,79.2,61.7,29.96,SE,136,0.0,6.0,55,0.00,,---,0.00,VWS V14.00,2013-09-23 20:54:00,
2013-09-23 16:59:00,79.4,61.3,29.97,SE,126,0.0,6.0,54,0.00,,---,0.00,VWS V14.00,2013-09-23 20:59:00,
2013-09-23 17:04:00,79.4,61.8,29.97,SE,142,1.0,4.0,55,0.00,,---,0.00,VWS V14.00,2013-09-23 21:04:00,
2013-09-23 17:09:00,79.6,61.0,29.96,ESE,107,0.0,4.0,53,0.00,,---,0.00,VWS V14.00,2013-09-23 21:09:00,
2013-09-23 17:14:00,79.4,61.8,29.97,SE,130,1.0,5.0,55,0.00,,---,0.00,VWS V14.00,2013-09-23 21:14:00,
2013-09-23 17:19:00,79.0,61.5,29.97,ESE,121,1.0,6.0,55,0.00,,---,0.00,VWS V14.00,2013-09-23 21:19:00,
2013-09-23 17:24:00,79.0,61.0,29.96,East,94,0.0,6.0,54,0.00,,---,0.00,VWS V14.00,2013-09-23 21:24:00,
2013-09-23 17:29:00,79.2,61.1,29.96,ESE,110,0.0,6.0,54,0.00,,---,0.00,VWS V14.00,2013-09-23 21:29:00,
2013-09-23 17:34:00,79.2,61.1,29.96,SE,129,0.0,6.0,54,0.00,,---,0.00,VWS V14.00,2013-09-23 21:34:00,
2013-09-23 17:39:00,79.0,61.0,29.96,SSE,155,0.0,6.0,54,0.00,,---,0.00,VWS V14.00,2013-09-23 21:39:00,
2013-09-23 17:44:00,78.9,61.4,29.97,ESE,108,0.0,5.0,55,0.00,,---,0.00,VWS V14.00,2013-09-23 21:44:00,
2013-09-23 17:49:00,79.0,61.5,29.97,ESE,121,0.0,5.0,55,0.00,,---,0.00,VWS V14.00,2013-09-23 21:49:00,
2013-09-23 17:54:00,79.2,61.7,29.97,SSE,152,0.0,8.0,55,0.00,,---,0.00,VWS V14.00,2013-09-23 21:54:00,
2013-09-23 17:59:00,79.0,62.0,29.97,NE,37,1.0,8.0,56,0.00,,---,0.00,VWS V14.00,2013-09-23 21:59:00,
2013-09-23 18:04:00,79.0,61.5,29.97,East,98,0.0,4.0,55,0.00,,---,0.00,VWS V14.00,2013-09-23 22:04:00,
2013-09-23 18:09:00,79.2,61.7,29.97,ESE,113,1.0,5.0,55,0.00,,---,0.00,VWS V14.00,2013-09-23 22:09:00,
2013-09-23 18:14:00,79.0,62.0,29.97,ESE,104,0.0,6.0,56,0.00,,---,0.00,VWS V14.00,2013-09-23 22:14:00,
2013-09-23 18:19:00,78.9,61.9,29.97,ESE,111,0.0,6.0,56,0.00,,---,0.00,VWS V14.00,2013-09-23 22:19:00,
2013-09-23 18:24:00,78.7,61.7,29.97,ESE,111,0.0,4.0,56,0.00,,---,0.00,VWS V14.00,2013-09-23 22:24:00,
2013-09-23 18:29:00,78.6,62.1,29.97,SE,130,6.0,7.0,57,0.00,,---,0.00,VWS V14.00,2013-09-23 22:29:00,
2013-09-23 18:34:00,78.3,61.8,29.97,ESE,115,0.0,6.0,57,0.00,,---,0.00,VWS V14.00,2013-09-23 22:34:00,
2013-09-23 18:39:00,78.2,62.2,29.97,SE,138,0.0,6.0,58,0.00,,---,0.00,VWS V14.00,2013-09-23 22:39:00,
2013-09-23 18:44:00,78.0,62.5,29.97,ESE,122,0.0,5.0,59,0.00,,---,0.00,VWS V14.00,2013-09-23 22:44:00,
2013-09-23 18:49:00,77.8,62.3,29.97,East,82,0.0,5.0,59,0.00,,---,0.00,VWS V14.00,2013-09-23 22:49:00,
2013-09-23 18:54:00,77.6,62.6,29.97,East,82,0.0,1.0,60,0.00,,---,0.00,VWS V14.00,2013-09-23 22:54:00,
2013-09-23 18:59:00,77.3,62.3,29.97,East,85,0.0,4.0,60,0.00,,---,0.00,VWS V14.00,2013-09-23 22:59:00,
2013-09-23 19:04:00,76.9,62.4,29.97,East,88,0.0,4.0,61,0.00,,---,0.00,VWS V14.00,2013-09-23 23:04:00,
2013-09-23 19:09:00,76.4,62.0,29.97,ESE,107,0.0,5.0,61,0.00,,---,0.00,VWS V14.00,2013-09-23 23:09:00,
2013-09-23 19:14:00,76.0,62.0,29.97,East,101,0.0,4.0,62,0.00,,---,0.00,VWS V14.00,2013-09-23 23:14:00,
2013-09-23 19:19:00,75.6,62.1,29.98,East,101,0.0,4.0,63,0.00,,---,0.00,VWS V14.00,2013-09-23 23:19:00,
2013-09-23 19:24:00,75.2,61.8,29.98,East,93,0.0,2.0,63,0.00,,---,0.00,VWS V14.00,2013-09-23 23:24:00,
2013-09-23 19:29:00,74.8,62.3,29.97,East,100,0.0,2.0,65,0.00,,---,0.00,VWS V14.00,2013-09-23 23:29:00,
2013-09-23 19:34:00,74.4,61.9,29.97,East,100,0.0,0.0,65,0.00,,---,0.00,VWS V14.00,2013-09-23 23:34:00,
2013-09-23 19:39:00,74.0,61.9,29.97,East,100,0.0,0.0,66,0.00,,---,0.00,VWS V14.00,2013-09-23 23:39:00,
2013-09-23 19:44:00,73.6,62.0,29.98,East,100,0.0,0.0,67,0.00,,---,0.00,VWS V14.00,2013-09-23 23:44:00,
2013-09-23 19:49:00,73.3,61.7,29.98,East,100,0.0,1.0,67,0.00,,---,0.00,VWS V14.00,2013-09-23 23:49:00,
2013-09-23 19:54:00,72.9,61.7,29.98,East,100,0.0,0.0,68,0.00,,---,0.00,VWS V14.00,2013-09-23 23:54:00,
2013-09-23 19:59:00,72.6,61.9,29.98,East,100,0.0,0.0,69,0.00,,---,0.00,VWS V14.00,2013-09-23 23:59:00,
2013-09-23 20:04:00,72.3,61.6,29.98,East,100,0.0,0.0,69,0.00,,---,0.00,VWS V14.00,2013-09-24 00:04:00,
2013-09-23 20:09:00,72.0,61.7,29.98,East,86,0.0,4.0,70,0.00,,---,0.00,VWS V14.00,2013-09-24 00:09:00,
2013-09-23 20:14:00,71.8,61.5,29.98,East,93,0.0,0.0,70,0.00,,---,0.00,VWS V14.00,2013-09-24 00:14:00,
2013-09-23 20:19:00,71.6,61.7,29.98,East,93,0.0,0.0,71,0.00,,---,0.00,VWS V14.00,2013-09-24 00:19:00,
2013-09-23 20:24:00,71.3,61.8,29.98,East,93,0.0,0.0,72,0.00,,---,0.00,VWS V14.00,2013-09-24 00:24:00,
2013-09-23 20:29:00,71.0,61.5,29.98,East,93,0.0,0.0,72,0.00,,---,0.00,VWS V14.00,2013-09-24 00:29:00,
2013-09-23 20:34:00,70.8,61.7,29.98,East,94,0.0,0.0,73,0.00,,---,0.00,VWS V14.00,2013-09-24 00:34:00,
2013-09-23 20:39:00,70.5,61.4,29.98,East,94,0.0,1.0,73,0.00,,---,0.00,VWS V14.00,2013-09-24 00:39:00,
2013-09-23 20:44:00,70.4,61.3,29.98,ENE,77,0.0,2.0,73,0.00,,---,0.00,VWS V14.00,2013-09-24 00:44:00,
2013-09-23 20:49:00,70.4,61.3,29.98,ENE,60,0.0,3.0,73,0.00,,---,0.00,VWS V14.00,2013-09-24 00:49:00,
2013-09-23 20:54:00,70.4,61.3,29.98,East,82,0.0,5.0,73,0.00,,---,0.00,VWS V14.00,2013-09-24 00:54:00,
2013-09-23 20:59:00,70.4,61.3,29.98,East,95,2.0,5.0,73,0.00,,---,0.00,VWS V14.00,2013-09-24 00:59:00,
2013-09-23 21:04:00,70.3,61.2,29.98,East,97,2.0,4.0,73,0.00,,---,0.00,VWS V14.00,2013-09-24 01:04:00,
2013-09-23 21:09:00,70.2,61.5,29.98,East,94,0.0,4.0,74,0.00,,---,0.00,VWS V14.00,2013-09-24 01:09:00,
2013-09-23 21:14:00,70.0,61.3,29.99,East,83,4.0,4.0,74,0.00,,---,0.00,VWS V14.00,2013-09-24 01:14:00,
2013-09-23 21:19:00,69.8,61.5,29.99,NE,55,0.0,5.0,75,0.00,,---,0.00,VWS V14.00,2013-09-24 01:19:00,
2013-09-23 21:24:00,69.6,61.3,29.99,ENE,63,0.0,2.0,75,0.00,,---,0.00,VWS V14.00,2013-09-24 01:24:00,
2013-09-23 21:29:00,69.3,61.4,29.99,NE,55,0.0,2.0,76,0.00,,---,0.00,VWS V14.00,2013-09-24 01:29:00,
2013-09-23 21:34:00,69.2,61.3,30.00,ENE,60,0.0,3.0,76,0.00,,---,0.00,VWS V14.00,2013-09-24 01:34:00,
2013-09-23 21:39:00,69.0,61.1,30.00,ENE,58,0.0,3.0,76,0.00,,---,0.00,VWS V14.00,2013-09-24 01:39:00,
2013-09-23 21:44:00,68.8,61.3,30.00,ENE,62,0.0,1.0,77,0.00,,---,0.00,VWS V14.00,2013-09-24 01:44:00,
2013-09-23 21:49:00,68.7,61.2,30.00,ENE,61,0.0,2.0,77,0.00,,---,0.00,VWS V14.00,2013-09-24 01:49:00,
2013-09-23 21:54:00,68.6,61.1,30.00,ENE,61,0.0,1.0,77,0.00,,---,0.00,VWS V14.00,2013-09-24 01:54:00,
2013-09-23 21:59:00,68.5,61.4,30.00,ENE,58,0.0,1.0,78,0.00,,---,0.00,VWS V14.00,2013-09-24 01:59:00,
2013-09-23 22:04:00,68.4,61.3,30.01,ENE,65,0.0,3.0,78,0.00,,---,0.00,VWS V14.00,2013-09-24 02:04:00,
2013-09-23 22:09:00,68.3,61.2,30.01,ENE,65,0.0,3.0,78,0.00,,---,0.00,VWS V14.00,2013-09-24 02:09:00,
2013-09-23 22:14:00,68.3,61.2,30.01,ENE,65,0.0,1.0,78,0.00,,---,0.00,VWS V14.00,2013-09-24 02:14:00,
2013-09-23 22:19:00,68.2,61.1,30.01,ENE,65,0.0,3.0,78,0.00,,---,0.00,VWS V14.00,2013-09-24 02:19:00,
2013-09-23 22:24:00,68.1,61.3,30.01,ENE,59,0.0,2.0,79,0.00,,---,0.00,VWS V14.00,2013-09-24 02:24:00,
2013-09-23 22:29:00,68.1,61.3,30.01,ENE,67,3.0,3.0,79,0.00,,---,0.00,VWS V14.00,2013-09-24 02:29:00,
2013-09-23 22:34:00,68.1,61.3,30.01,ENE,67,0.0,2.0,79,0.00,,---,0.00,VWS V14.00,2013-09-24 02:34:00,
2013-09-23 22:39:00,68.1,61.0,30.01,ENE,74,1.0,4.0,78,0.00,,---,0.00,VWS V14.00,2013-09-24 02:39:00,
2013-09-23 22:44:00,68.1,61.0,30.01,ENE,74,0.0,0.0,78,0.00,,---,0.00,VWS V14.00,2013-09-24 02:44:00,
2013-09-23 22:49:00,68.1,61.3,30.01,ENE,71,0.0,4.0,79,0.00,,---,0.00,VWS V14.00,2013-09-24 02:49:00,
2013-09-23 22:54:00,67.9,61.2,30.01,ENE,76,2.0,4.0,79,0.00,,---,0.00,VWS V14.00,2013-09-24 02:54:00,
2013-09-23 22:59:00,67.8,61.1,30.01,ENE,76,0.0,4.0,79,0.00,,---,0.00,VWS V14.00,2013-09-24 02:59:00,
2013-09-23 23:04:00,67.6,60.9,30.01,ENE,76,0.0,1.0,79,0.00,,---,0.00,VWS V14.00,2013-09-24 03:04:00,
2013-09-23 23:09:00,67.5,60.8,30.01,ENE,76,0.0,1.0,79,0.00,,---,0.00,VWS V14.00,2013-09-24 03:09:00,
2013-09-23 23:14:00,67.4,60.7,30.01,ENE,76,0.0,2.0,79,0.00,,---,0.00,VWS V14.00,2013-09-24 03:14:00,
2013-09-23 23:19:00,67.4,61.0,30.01,ENE,76,0.0,2.0,80,0.00,,---,0.00,VWS V14.00,2013-09-24 03:19:00,
2013-09-23 23:24:00,67.3,60.6,30.01,ENE,76,0.0,2.0,79,0.00,,---,0.00,VWS V14.00,2013-09-24 03:24:00,
2013-09-23 23:29:00,67.4,60.7,30.01,ENE,74,0.0,4.0,79,0.00,,---,0.00,VWS V14.00,2013-09-24 03:29:00,
2013-09-23 23:34:00,67.4,60.7,30.01,ENE,74,0.0,0.0,79,0.00,,---,0.00,VWS V14.00,2013-09-24 03:34:00,
2013-09-23 23:39:00,67.3,60.6,30.01,ENE,74,0.0,1.0,79,0.00,,---,0.00,VWS V14.00,2013-09-24 03:39:00,
2013-09-23 23:44:00,67.2,60.8,30.01,ENE,73,0.0,1.0,80,0.00,,---,0.00,VWS V14.00,2013-09-24 03:44:00,
2013-09-23 23:49:00,67.0,60.6,30.02,ENE,75,0.0,3.0,80,0.00,,---,0.00,VWS V14.00,2013-09-24 03:49:00,
2013-09-23 23:54:00,66.8,60.8,30.02,ENE,75,0.0,2.0,81,0.00,,---,0.00,VWS V14.00,2013-09-24 03:54:00,
2013-09-23 23:59:00,66.6,60.6,30.02,ENE,75,0.0,2.0,81,0.00,,---,0.00,VWS V14.00,2013-09-24 03:59:00,